Location: Lima
(44.6384°N, 112.5920°W)
Time: 23:22:12
(UTC+00:00)

Gurwin Techsat 1B - Visible Passes

Search period start: 18 April 2024 00:00
Search period end: 28 April 2024 00:00
Orbit: 811 x 813 km, 98.9° (Epoch: 18 April)

Date Brightness Start Highest point End Pass type
(mag) Time Alt. Az. Time Alt. Az. Time Alt. Az.
18 Apr 11.2 09:34:58 10° ENE 09:36:50 12° E 09:38:42 10° ESE visible
18 Apr 8.6 11:12:06 10° NNE 11:17:28 88° ESE 11:22:47 10° SSW visible
19 Apr 9.2 10:49:00 10° NNE 10:54:15 56° E 10:59:27 10° S visible
20 Apr 10.0 10:26:04 10° NNE 10:30:56 35° E 10:35:45 10° SSE visible
20 Apr 9.4 12:06:01 10° N 12:10:45 34° WNW 12:15:29 10° SW visible
21 Apr 10.7 10:03:26 10° NE 10:07:32 22° E 10:11:37 10° SE visible
21 Apr 8.9 11:42:33 10° N 11:47:43 52° WNW 11:52:50 10° SW visible
22 Apr 11.1 09:41:25 10° ENE 09:44:03 14° E 09:46:40 10° ESE visible
22 Apr 8.6 11:19:14 10° NNE 11:24:35 82° WNW 11:29:54 10° SSW visible
23 Apr 9.0 10:56:04 10° NNE 11:01:22 64° ESE 11:06:38 10° S visible
24 Apr 9.8 10:33:06 10° NNE 10:38:05 40° E 10:43:03 10° SSE visible
25 Apr 10.5 10:10:20 10° NE 10:14:43 25° E 10:19:03 10° SSE visible
25 Apr 9.0 11:49:43 10° N 11:54:47 46° WNW 11:59:50 10° SW visible
26 Apr 11.1 09:48:05 10° NE 09:51:15 16° E 09:54:25 10° SE visible
26 Apr 8.6 11:26:22 10° N 11:31:41 72° WNW 11:36:58 10° SSW visible
27 Apr 8.8 11:03:09 10° NNE 11:08:29 73° ESE 11:13:47 10° S visible
